Flag for Australia Weather past 2 weeks in Alice Springs, Northern Territory, Australia

Now
72 °F

Sunny.


Feels Like: 77 °F
Forecast: 58 / 83 °F
Wind: 8 mph from South

Location: Alice Springs Aerodrome

Current Time: Dec 27, 2014 at 9:06:21 AM

Latest Report: Dec 27, 2014 at 8:30 AM


Visibility: 10 mi

Pressure: 30.01 "Hg

Humidity: 41%

Dew point: 46 °F

Location of Alice SpringsLocation

Historic Weather in Alice Springs — Graph

°F

Alice Springs temperature yesterday

Maximum temperature yesterday: 75 °F (at 8:30 AM)
Minimum temperature yesterday: 64 °F (at 11:30 PM)
Average temperature yesterday: 71 °F

Past Weeks' High & Low Weather Summary

 TemperatureHumidityPressure
High109 °F (Dec 15, 4:00 PM)100% (Dec 18, 7:00 AM)30.07 "Hg (Dec 18, 7:00 AM)
Low57 °F (Dec 27, 4:00 AM)6% (Dec 14, 3:00 PM)29.68 "Hg (Dec 15, 3:30 PM)
Average84 °F39%29.87 "Hg
* Reported Dec 12 7:30 AM — Dec 27 7:30 AM, Alice Springs, Weather by CustomWeather, © 2014

Note: Actual official high and low records may vary slightly from our data, if they occured in-between our weather recording intervals... More about our weather records

Advertising

Alice Springs weather history for previous 24 hours

 ConditionsComfort  
Time TempWeatherWind HumidityBarometerVisibility
7:30 AM
Dec 27
66 °FSunny.5 mph56%30.01 "Hg10 mi
6:30 AM59 °FSunny.5 mph77%29.98 "Hg10 mi
6:00 AM59 °FSunny.6 mph77%29.98 "Hg10 mi
5:30 AM57 °FSunny.6 mph82%29.98 "HgN/A
5:00 AM57 °FClear.5 mph82%29.95 "HgN/A
4:30 AM59 °FClear.6 mph77%29.95 "HgN/A
4:00 AM57 °FClear.6 mph82%29.95 "HgN/A
3:30 AM59 °FClear.5 mph77%29.95 "HgN/A
2:30 AM59 °FClear.3 mph77%29.95 "HgN/A
1:30 AM61 °FClear.6 mph72%29.95 "HgN/A
12:30 AM63 °FClear.7 mph59%29.98 "HgN/A
11:30 PM
Dec 26
64 °FClear.8 mph52%29.98 "HgN/A
11:00 PM66 °FClear.8 mph49%29.98 "HgN/A
10:30 PM66 °FClear.9 mph49%29.98 "HgN/A
10:00 PM68 °FClear.8 mph46%29.98 "HgN/A
9:30 PM68 °FClear.9 mph46%29.98 "HgN/A
8:30 PM70 °FClear.13 mph40%29.95 "HgN/A
8:00 PM70 °FClear.12 mph40%29.95 "HgN/A
7:30 PM70 °FClear.13 mph40%29.95 "HgN/A
7:00 PM72 °FClear.16 mph36%29.95 "HgN/A
6:30 PM72 °FSunny.15 mph36%29.92 "HgN/A
5:30 PM72 °FSunny.16 mph38%29.92 "HgN/A
5:00 PM73 °FSunny.16 mph36%29.92 "Hg10 mi
4:30 PM73 °FSunny.18 mph38%29.92 "Hg10 mi
4:00 PM75 °FSunny.18 mph36%29.92 "Hg10 mi
3:30 PM75 °FSunny.17 mph34%29.92 "Hg10 mi
3:00 PM73 °FLight rain. Clear.17 mph36%29.95 "HgN/A
2:30 PM73 °FLight rain. Broken clouds.17 mph38%29.95 "HgN/A
2:00 PM75 °FSunny.18 mph31%29.95 "Hg10 mi
1:30 PM75 °FSunny.17 mph31%29.95 "Hg10 mi
12:30 PM75 °FSunny.20 mph31%29.98 "Hg10 mi
12:00 PM72 °FSunny.21 mph33%29.98 "Hg10 mi
11:30 AM73 °FSunny.20 mph33%30.01 "Hg10 mi
11:00 AM72 °FLight rain. Clear.22 mph33%30.01 "HgN/A
10:30 AM72 °FSunny.22 mph33%30.01 "Hg10 mi
10:22 AM72 °FSunny.23 mph33%30.01 "Hg10 mi
9:30 AM75 °FLight rain. Clear.24 mph21%29.98 "HgN/A
9:00 AM75 °FSunny.18 mph22%29.98 "Hg10 mi
Weather by CustomWeather, © 2014

See weather overviewHow to use our weather pages